Atlantic - Newfoundland: Past 24 Hour Conditions

 

Mary's Harbour

08:30 AM NDT 18 September 2014
This table is a summary of hourly weather conditions for the past 24 hours.
Date / Time
(NDT)
Wind(knots) Conditions Visibility(km) Pressure(kPa) Air tempC) Relative humidity(%) Dew pointC)
18 September 2014
8:30 WSW 4 Partly Cloudy 24 101.5 5 71 0
7:30 SW 2 Mostly Cloudy 16 101.5 3 76 -1
6:30 SW 4 Mostly Cloudy 16 101.4 2 82 -1
5:30 WSW 4 Partly Cloudy 16 101.4 3 80 -1
4:30 SW 3 Partly Cloudy 16 101.4 3 75 -1
3:30 SW 4 Mostly Cloudy 16 101.4 4 77 0
2:30 W 6 Mostly Cloudy 16 101.3 4 84 2
1:30 WNW 9 Clear 16 101.2 6 80 2
0:30 WNW 2 Clear 16 101.2 5 85 3
17 September 2014
23:30 W 6 Clear 16 101.1 7 83 4
22:30 SW 5 Mostly Cloudy 16 101.0 8 83 5
21:30 SW 5 Mostly Cloudy 16 100.9 10 77 6
20:30 SW 5 Cloudy 16 100.8 10 74 6
19:30 WSW 8 Cloudy 16 100.7 11 72 6
18:30 W 17 gust 32 Light Rain 16 100.6 12 74 7
17:30 SW 16 gust 27 Mainly Sunny 16 100.5 15 53 6
16:30 SW 20 gust 32 Partly Cloudy 24 100.4 16 46 5
15:30 SW 13 gust 24 Mainly Sunny 24 100.4 17 44 5
14:30 SW 18 gust 26 Partly Cloudy 24 100.5 17 42 4
13:30 SW 12 gust 22 Partly Cloudy 24 100.5 16 45 5
12:30 SSW 13 gust 23 Mostly Cloudy 24 100.6 16 50 5
11:30 SSW 12 gust 20 Mostly Cloudy 24 100.6 15 59 7
10:30 SW 13 gust 19 Mostly Cloudy 24 100.7 13 68 7
9:30 SSW 9 gust 18 Mostly Cloudy 24 100.7 12 79 8
8:30 SSW 4 Partly Cloudy 24 100.7 10 86 8
 
Map of Atlantic - Newfoundland marine weather areas Southwestern Grand Banks - 44138 Banquereau - 44139 Tail of the Bank - 44140 Nickerson Bank - 44251 Northeast Burgeo Bank - 44255 Blanc-Sablon Airport Cap Whittle Chevery Natashquan Airport Heath Point Miscou Island Grand Étang Ingonish Beach North Mountain St.Paul Island J.A. Douglas McCurdy Sydney Airport Charlottetown Airport East Point North Cape Argentia Bonavista Burgeo Cape Race Corner Brook Daniel's Harbour Englee Ferolle Point La Scie Port aux Basques Rocky Harbour Sagona Island St. Anthony Airport St. John's Int'l Airport St. Lawrence Stephenville Airport Twillingate Winterland Wreckhouse Cartwright Airport Mary's Harbour Grates Cove Pool's Island Marticot Island Long Pond Îles de la Madeleine Airport
Legend: buoyBuoy land stationLand Station